Monroe, MI

1:34 PM EDT on October 17, 2017 (GMT -0400)
Custer

Weather History for KTTF - December, 2013

Change the Weather History Date:

Saturday, December 7, 2013

  Actual Average Record
Temperature  
Mean Temperature 20 °F -  
Max Temperature 26 °F 40 °F 63 °F (1951)
Min Temperature 14 °F 25 °F 5 °F (1977)
Degree Days  
Heating Degree Days 44    
Moisture  
Dew Point 10 °F    
Average Humidity 66    
Maximum Humidity 86    
Minimum Humidity 47    
Precipitation  
Precipitation 0.00 in - - ()
Sea Level Pressure  
Sea Level Pressure 30.51 in    
Wind  
Wind Speed 7 mph (WNW)    
Max Wind Speed 14 mph    
Max Gust Speed 20 mph    
Visibility 10 miles    
Events      
Averages and records for this station are not official NWS values.
T = Trace of Precipitation, MM = Missing Value Source: NWS Daily Summary

Daily Weather History Graph

Daily Weather History Graph

Search for Another Location

Airport or City:

Trip Planner

Search our weather history database for the weather conditions in past years. The results will help you decide how hot, cold, wet, or windy it might be!

Date:

Astronomy

Dec. 07, 2013 Rise Set
Actual Time 7:48 AM EST 5:02 PM EST
Civil Twilight 7:16 AM EST 5:33 PM EST
Nautical Twilight 6:41 AM EST 6:08 PM EST
Astronomical Twilight 6:07 AM EST 6:42 PM EST
Moon 11:29 AM EST (12/7) 10:46 PM EST (12/7)
Length of Visible Light 10h 17m
Length of Day
9h 14m
Waxing Crescent, 29% of the Moon is Illuminated
Dec 7
Waxing Crescent
Dec 9
First Quarter
Dec 17
Full
Dec 25
Last Quarter
Jan 1
New

Hourly Weather History & Observations

Time (EST) Temp. Windchill Dew Point Humidity Pressure Visibility Wind Dir Wind Speed Gust Speed Precip Events Conditions
12:13 AM 21.2 °F 11.7 °F 14.0 °F 74% 30.37 in 10.0 mi WNW 8.1 mph - N/A   Clear
12:33 AM 21.2 °F 10.9 °F 14.0 °F 74% 30.38 in 10.0 mi WNW 9.2 mph - N/A   Scattered Clouds
12:53 AM 21.2 °F 8.9 °F 12.2 °F 68% 30.38 in 10.0 mi NW 12.7 mph - N/A   Mostly Cloudy
1:13 AM 21.2 °F 10.9 °F 12.2 °F 68% 30.38 in 10.0 mi NW 9.2 mph - N/A   Overcast
1:33 AM 21.2 °F 10.1 °F 12.2 °F 68% 30.39 in 10.0 mi NW 10.4 mph - N/A   Overcast
1:53 AM 21.2 °F 11.7 °F 10.4 °F 63% 30.39 in 10.0 mi NW 8.1 mph - N/A   Scattered Clouds
2:13 AM 19.4 °F 7.2 °F 10.4 °F 68% 30.40 in 10.0 mi WNW 11.5 mph - N/A   Clear
2:33 AM 19.4 °F 9.5 °F 10.4 °F 68% 30.41 in 10.0 mi WNW 8.1 mph - N/A   Clear
2:53 AM 19.4 °F 7.9 °F 10.4 °F 68% 30.41 in 10.0 mi WNW 10.4 mph - N/A   Clear
3:14 AM 19.4 °F 8.6 °F 10.4 °F 68% 30.42 in 10.0 mi WNW 9.2 mph - N/A   Clear
3:34 AM 19.4 °F 8.6 °F 10.4 °F 68% 30.43 in 10.0 mi WNW 9.2 mph - N/A   Clear
3:54 AM 17.6 °F 8.2 °F 10.4 °F 73% 30.43 in 10.0 mi WNW 6.9 mph - N/A   Clear
4:14 AM 17.6 °F 9.3 °F 10.4 °F 73% 30.44 in 10.0 mi WNW 5.8 mph - N/A   Clear
4:34 AM 17.6 °F 9.3 °F 10.4 °F 73% 30.44 in 10.0 mi WNW 5.8 mph - N/A   Clear
4:54 AM 17.6 °F 10.7 °F 10.4 °F 73% 30.45 in 10.0 mi WNW 4.6 mph - N/A   Clear
5:14 AM 17.6 °F 10.7 °F 10.4 °F 73% 30.46 in 10.0 mi WNW 4.6 mph - N/A   Clear
5:34 AM 15.8 °F 8.6 °F 10.4 °F 79% 30.47 in 10.0 mi WNW 4.6 mph - N/A   Clear
5:54 AM 17.6 °F 12.3 °F 10.4 °F 73% 30.47 in 10.0 mi WNW 3.5 mph - N/A   Clear
6:15 AM 15.8 °F - 10.4 °F 79% 30.48 in 10.0 mi Calm Calm - N/A   Clear
6:35 AM 15.8 °F - 10.4 °F 79% 30.49 in 10.0 mi Calm Calm - N/A   Clear
6:55 AM 15.8 °F 10.2 °F 10.4 °F 79% 30.49 in 10.0 mi West 3.5 mph - N/A   Clear
7:15 AM 15.8 °F - 10.4 °F 79% 30.50 in 10.0 mi Calm Calm - N/A   Clear
7:35 AM 15.8 °F - 10.4 °F 79% 30.50 in 10.0 mi Calm Calm - N/A   Scattered Clouds
7:55 AM 17.6 °F - 12.2 °F 79% 30.50 in 10.0 mi Calm Calm - N/A   Overcast
8:15 AM 17.6 °F 12.3 °F 12.2 °F 79% 30.51 in 10.0 mi WSW 3.5 mph - N/A   Overcast
8:35 AM 19.4 °F 11.5 °F 12.2 °F 74% 30.52 in 10.0 mi West 5.8 mph - N/A   Mostly Cloudy
8:56 AM 19.4 °F 11.5 °F 14.0 °F 80% 30.53 in 10.0 mi West 5.8 mph - N/A   Scattered Clouds
9:16 AM 21.2 °F 12.6 °F 15.8 °F 80% 30.53 in 10.0 mi WNW 6.9 mph - N/A   Clear
9:36 AM 21.2 °F 10.1 °F 12.2 °F 68% 30.54 in 10.0 mi WNW 10.4 mph - N/A   Clear
9:56 AM 21.2 °F 10.9 °F 12.2 °F 68% 30.54 in 10.0 mi NW 9.2 mph - N/A   Scattered Clouds
10:16 AM 23.0 °F 13.1 °F 12.2 °F 63% 30.55 in 10.0 mi WNW 9.2 mph - N/A   Mostly Cloudy
10:36 AM 23.0 °F 11.7 °F 10.4 °F 59% 30.55 in 10.0 mi WNW 11.5 mph 17.3 mph N/A   Scattered Clouds
10:56 AM 23.0 °F 10.6 °F 10.4 °F 59% 30.56 in 10.0 mi WNW 13.8 mph - N/A   Clear
11:16 AM 24.8 °F 14.6 °F 10.4 °F 54% 30.56 in 10.0 mi NW 10.4 mph - N/A   Clear
11:36 AM 24.8 °F 15.3 °F 10.4 °F 54% 30.56 in 10.0 mi WNW 9.2 mph 17.3 mph N/A   Clear
11:56 AM 24.8 °F 16.1 °F 8.6 °F 50% 30.55 in 10.0 mi WNW 8.1 mph 19.6 mph N/A   Clear
12:16 PM 24.8 °F 14.0 °F 10.4 °F 54% 30.55 in 10.0 mi NW 11.5 mph - N/A   Clear
12:36 PM 24.8 °F 14.6 °F 10.4 °F 54% 30.55 in 10.0 mi WNW 10.4 mph 18.4 mph N/A   Scattered Clouds
12:52 PM 26.6 °F 16.8 °F 8.6 °F 47% 30.54 in 10.0 mi West 10.4 mph 17.3 mph N/A   Clear
1:12 PM 26.6 °F 17.5 °F 10.4 °F 51% 30.54 in 10.0 mi WNW 9.2 mph 16.1 mph N/A   Clear
1:32 PM 26.6 °F 17.5 °F 8.6 °F 47% 30.54 in 10.0 mi NW 9.2 mph 16.1 mph N/A   Clear
1:52 PM 26.6 °F 16.8 °F 8.6 °F 47% 30.53 in 10.0 mi WNW 10.4 mph - N/A   Clear
2:12 PM 26.6 °F 16.8 °F 8.6 °F 47% 30.53 in 10.0 mi NW 10.4 mph - N/A   Clear
2:32 PM 26.6 °F 16.2 °F 8.6 °F 47% 30.53 in 10.0 mi West 11.5 mph - N/A   Clear
2:52 PM 26.6 °F 17.5 °F 8.6 °F 47% 30.52 in 10.0 mi NW 9.2 mph - N/A   Clear
3:12 PM 26.6 °F 18.2 °F 8.6 °F 47% 30.52 in 10.0 mi NNW 8.1 mph - N/A   Clear
3:33 PM 26.6 °F 17.5 °F 10.4 °F 51% 30.53 in 10.0 mi WNW 9.2 mph - N/A   Clear
3:53 PM 26.6 °F 17.5 °F 8.6 °F 47% 30.53 in 10.0 mi WNW 9.2 mph - N/A   Clear
4:13 PM 26.6 °F 18.2 °F 8.6 °F 47% 30.54 in 10.0 mi NW 8.1 mph - N/A   Clear
4:33 PM 24.8 °F 16.1 °F 8.6 °F 50% 30.55 in 10.0 mi NW 8.1 mph - N/A   Clear
4:53 PM 24.8 °F 16.1 °F 8.6 °F 50% 30.55 in 10.0 mi WNW 8.1 mph - N/A   Clear
5:13 PM 23.0 °F 17.0 °F 8.6 °F 54% 30.55 in 10.0 mi NW 4.6 mph - N/A   Clear
5:33 PM 21.2 °F 14.9 °F 8.6 °F 58% 30.55 in 10.0 mi NW 4.6 mph - N/A   Clear
5:53 PM 21.2 °F 16.4 °F 10.4 °F 63% 30.55 in 10.0 mi NW 3.5 mph - N/A   Clear
6:13 PM 21.2 °F 16.4 °F 10.4 °F 63% 30.56 in 10.0 mi NW 3.5 mph - N/A   Clear
6:33 PM 19.4 °F - 10.4 °F 68% 30.56 in 10.0 mi Calm Calm - N/A   Clear
6:54 PM 19.4 °F 14.3 °F 10.4 °F 68% 30.56 in 10.0 mi NW 3.5 mph - N/A   Clear
7:14 PM 19.4 °F 14.3 °F 10.4 °F 68% 30.57 in 10.0 mi NW 3.5 mph - N/A   Clear
7:34 PM 19.4 °F 11.5 °F 10.4 °F 68% 30.57 in 10.0 mi NW 5.8 mph - N/A   Clear
7:54 PM 19.4 °F 10.4 °F 10.4 °F 68% 30.58 in 10.0 mi NW 6.9 mph - N/A   Clear
8:14 PM 19.4 °F 10.4 °F 10.4 °F 68% 30.59 in 10.0 mi NW 6.9 mph - N/A   Clear
8:34 PM 19.4 °F 11.5 °F 10.4 °F 68% 30.59 in 10.0 mi NW 5.8 mph - N/A   Clear
8:54 PM 19.4 °F 11.5 °F 10.4 °F 68% 30.58 in 10.0 mi NW 5.8 mph - N/A   Clear
9:14 PM 17.6 °F 12.3 °F 10.4 °F 73% 30.58 in 10.0 mi NW 3.5 mph - N/A   Clear
9:34 PM 17.6 °F 10.7 °F 10.4 °F 73% 30.58 in 10.0 mi NW 4.6 mph - N/A   Clear
9:54 PM 17.6 °F 12.3 °F 10.4 °F 73% 30.59 in 10.0 mi NNW 3.5 mph - N/A   Clear
10:15 PM 17.6 °F - 10.4 °F 73% 30.58 in 10.0 mi Calm Calm - N/A   Clear
10:35 PM 17.6 °F - 10.4 °F 73% 30.58 in 10.0 mi Calm Calm - N/A   Clear
10:55 PM 15.8 °F - 10.4 °F 79% 30.58 in 10.0 mi Calm Calm - N/A   Clear
11:15 PM 15.8 °F - 10.4 °F 79% 30.58 in 10.0 mi Calm Calm - N/A   Clear
11:35 PM 15.8 °F - 10.4 °F 79% 30.58 in 10.0 mi Calm Calm - N/A   Clear
11:55 PM 14.0 °F - 10.4 °F 86% 30.57 in 10.0 mi Calm Calm - N/A   Clear